Погода в Фалёнках

Россия / Кировская область     58°21′31″N   51°35′32″E
темп.,
°C
ветер,
м/с
пор.,
м/с
влажн.,
%
обл.,
%
осадки,
мм/ч
давл.,
гПа
погр.,
м
20 апреля, вт
вт2000:00−1вюв34651 0.0 103552
03:00−1вюв22621 0.0 103626
06:00+1вюв23531 0.0 1036126
09:00+5вюв33360 0.0 1035861
12:00+7юв33320 0.0 10341252
15:00+8юв22315 0.0 10331271
18:00+6в33485 0.0 103139
21:00+2юв34581 0.0 103254
21 апреля, ср
ср2100:00+1ююв33635 0.0 103245
03:000юв35625 0.0 103284
06:00+2юв4105556 0.0 1031299
09:00+8ююв71137100 0.0 1029960
12:00+10ююв81235100 0.0 10271240
15:00+10ююв71340100 0.0 10251312
18:00+8ююв71444100 0.0 1024874
21:00+7ююв81545100 0.0 1023876
22 апреля, чт
чт2200:00+4ююв81674100 0.0 1022977
03:00+3ююв81696100 0.9 1022771
06:00+3ю71496100 0.3 1023679
09:00+3ю71396100 0.4 1024641
12:00+5ю61191100 0.0 1024611
15:00+5ю61092100 0.3 1025630
18:00+5ююв51194100 0.1 1025596
21:00+5ю61392100 0.2 1025546
23 апреля, пт
пт2300:00+4ююв5119471 0.1 1024382
03:00+4ю51195100 0.1 1025497
06:00+4ю5996100 0.4 1025426
09:00+5ююз4695100 0.5 1026380
12:00+7ююз4475100 0.0 1026922
15:00+8ю3374100 0.1 1026476
18:00+7ююв3479100 0.0 1026101
21:00+4юв35905 0.0 102681
24 апреля, сб
сб2400:00+4вюв228810 0.0 102624
03:00+3в3495100 0.0 102559
06:00+4в3792100 0.0 1024201
09:00+7в4675100 0.0 1022539
12:00+9в5666100 0.1 10201144
15:00+9в4770100 0.1 1018995
18:00+8в4978100 0.0 1016588
21:00+6в4891100 0.1 1015526